| time (UTC) | temp F | wind direction | speed MPH | gust MPH | rain 1hr in | rain 24hr in | rain mn in | humidity % | barometer mb |
| 20260505041648 | 65 | 203 | 5.0 | 14.0 | 0.00 | 0.00 | 0.00 | 67 | 1014.7 |
| 20260505041143 | 65 | 193 | 5.0 | 21.0 | 0.00 | 0.00 | 0.00 | 67 | 1014.6 |
| 20260505040637 | 65 | 205 | 5.0 | 21.0 | 0.00 | 0.00 | 0.00 | 67 | 1014.7 |
| 20260505040130 | 65 | 198 | 5.0 | 13.0 | 0.00 | 0.00 | 0.00 | 67 | 1014.6 |
| 20260505035626 | 65 | 141 | 5.0 | 13.0 | 0.00 | 0.00 | 0.00 | 67 | 1014.5 |
| 20260505035348 | 65 | 316 | 4.0 | 12.0 | 0.00 | 0.00 | 0.00 | 67 | 1014.5 |
| 20260505034614 | 65 | 240 | 4.0 | 12.0 | 0.00 | 0.00 | 0.00 | 67 | 1014.6 |
| 20260505034113 | 65 | 16 | 5.0 | 12.0 | 0.00 | 0.00 | 0.00 | 67 | 1014.5 |
| 20260505033614 | 65 | 236 | 5.0 | 15.0 | 0.00 | 0.00 | 0.00 | 67 | 1014.5 |
| 20260505033112 | 65 | 143 | 5.0 | 15.0 | 0.00 | 0.00 | 0.00 | 67 | 1014.5 |
| 20260505032611 | 65 | 153 | 5.0 | 11.0 | 0.00 | 0.00 | 0.00 | 68 | 1014.5 |
| 20260505032112 | 66 | 233 | 4.0 | 12.0 | 0.00 | 0.00 | 0.00 | 67 | 1014.5 |
| 20260505031612 | 66 | 242 | 4.0 | 12.0 | 0.00 | 0.00 | 0.00 | 67 | 1014.5 |
| 20260505031112 | 66 | 345 | 4.0 | 11.0 | 0.00 | 0.00 | 0.00 | 67 | 1014.4 |
| 20260505030612 | 66 | 182 | 5.0 | 13.0 | 0.00 | 0.00 | 0.00 | 67 | 1014.6 |
| 20260505030557 | 66 | 276 | 5.0 | 13.0 | 0.00 | 0.00 | 0.00 | 68 | 1014.4 |
| 20260505025609 | 66 | 240 | 4.0 | 13.0 | 0.00 | 0.00 | 0.00 | 68 | 1014.4 |
| 20260505025106 | 65 | 274 | 5.0 | 13.0 | 0.00 | 0.00 | 0.00 | 69 | 1014.4 |
| 20260505024606 | 65 | 206 | 4.0 | 12.0 | 0.00 | 0.00 | 0.00 | 68 | 1014.4 |
| 20260505024106 | 66 | 216 | 3.0 | 10.0 | 0.00 | 0.00 | 0.00 | 68 | 1014.3 |
| 20260505023606 | 66 | 138 | 3.0 | 11.0 | 0.00 | 0.00 | 0.00 | 68 | 1014.2 |
| 20260505023103 | 65 | 186 | 3.0 | 11.0 | 0.00 | 0.00 | 0.00 | 68 | 1014.2 |
| 20260505022603 | 65 | 164 | 2.0 | 9.0 | 0.00 | 0.00 | 0.00 | 68 | 1014.2 |
| 20260505022323 | 65 | 168 | 3.0 | 10.0 | 0.00 | 0.00 | 0.00 | 67 | 1014.2 |
| 20260505021602 | 65 | 201 | 4.0 | 10.0 | 0.00 | 0.00 | 0.00 | 66 | 1014.2 |
| 20260505021236 | 65 | 199 | 4.0 | 9.0 | 0.00 | 0.00 | 0.00 | 66 | 1014.1 |
| 20260505020516 | 65 | 185 | 3.0 | 9.0 | 0.00 | 0.00 | 0.00 | 66 | 1014.0 |
| 20260505020017 | 65 | 180 | 2.0 | 9.0 | 0.00 | 0.00 | 0.00 | 65 | 1014.0 |
| 20260505015516 | 65 | 245 | 2.0 | 8.0 | 0.00 | 0.00 | 0.00 | 66 | 1014.0 |
| 20260505015016 | 64 | 197 | 2.0 | 8.0 | 0.00 | 0.00 | 0.00 | 65 | 1013.9 |
| 20260505014508 | 64 | 30 | 2.0 | 6.0 | 0.00 | 0.00 | 0.00 | 65 | 1013.8 |
| 20260505014002 | 63 | 51 | 2.0 | 6.0 | 0.00 | 0.00 | 0.00 | 65 | 1013.9 |
| 20260505013455 | 63 | 73 | 1.0 | 5.0 | 0.00 | 0.00 | 0.00 | 64 | 1013.7 |
| 20260505013216 | 63 | 93 | 1.0 | 5.0 | 0.00 | 0.00 | 0.00 | 66 | 1013.8 |
| 20260505012443 | 63 | 221 | 0.0 | 1.0 | 0.00 | 0.00 | 0.00 | 66 | 1013.7 |
| 20260505011937 | 64 | 222 | 0.0 | 2.0 | 0.00 | 0.00 | 0.00 | 64 | 1013.7 |
| 20260505011435 | 64 | 222 | 0.0 | 2.0 | 0.00 | 0.00 | 0.00 | 63 | 1013.7 |
| 20260505011149 | 64 | 222 | 0.0 | 1.0 | 0.00 | 0.00 | 0.00 | 62 | 1013.6 |
| 20260505010421 | 65 | 221 | 0.0 | 1.0 | 0.00 | 0.00 | 0.00 | 61 | 1013.5 |
| 20260505005912 | 65 | 221 | 0.0 | 1.0 | 0.00 | 0.00 | 0.00 | 62 | 1013.4 |
| 20260505005406 | 66 | 222 | 0.0 | 1.0 | 0.00 | 0.00 | 0.00 | 61 | 1013.3 |
| 20260505004900 | 66 | 221 | 0.0 | 2.0 | 0.00 | 0.00 | 0.00 | 59 | 1013.3 |
| 20260505004356 | 67 | 221 | 0.0 | 2.0 | 0.00 | 0.00 | 0.00 | 59 | 1013.3 |
| 20260505003850 | 67 | 221 | 0.0 | 1.0 | 0.00 | 0.00 | 0.00 | 58 | 1013.3 |
| 20260505003343 | 68 | 221 | 0.0 | 2.0 | 0.00 | 0.00 | 0.00 | 57 | 1013.2 |
| 20260505002837 | 68 | 221 | 0.0 | 2.0 | 0.00 | 0.00 | 0.00 | 55 | 1013.2 |
| 20260505002331 | 69 | 221 | 0.0 | 4.0 | 0.00 | 0.00 | 0.00 | 55 | 1013.0 |
| 20260505001825 | 69 | 221 | 0.0 | 4.0 | 0.00 | 0.00 | 0.00 | 55 | 1012.9 |
| 20260505001319 | 70 | 232 | 1.0 | 3.0 | 0.00 | 0.00 | 0.00 | 55 | 1012.9 |
| 20260505000813 | 71 | 232 | 1.0 | 4.0 | 0.00 | 0.00 | 0.00 | 49 | 1012.8 |
| 20260505000310 | 71 | 237 | 1.0 | 5.0 | 0.00 | 0.00 | 0.00 | 49 | 1012.9 |
| 20260504235802 | 72 | 192 | 1.0 | 5.0 | 0.00 | 0.00 | 0.00 | 47 | 1013.0 |
| 20260504235255 | 72 | 236 | 2.0 | 5.0 | 0.00 | 0.00 | 0.00 | 46 | 1012.8 |
| 20260504234749 | 73 | 237 | 2.0 | 6.0 | 0.00 | 0.00 | 0.00 | 45 | 1012.7 |
| 20260504234242 | 73 | 201 | 2.0 | 6.0 | 0.00 | 0.00 | 0.00 | 45 | 1012.8 |
| 20260504233737 | 74 | 221 | 2.0 | 5.0 | 0.00 | 0.00 | 0.00 | 44 | 1012.7 |
| 20260504233231 | 74 | 228 | 2.0 | 5.0 | 0.00 | 0.00 | 0.00 | 43 | 1012.8 |
| 20260504232725 | 75 | 186 | 2.0 | 5.0 | 0.00 | 0.00 | 0.00 | 42 | 1012.6 |
| 20260504232219 | 75 | 222 | 3.0 | 11.0 | 0.00 | 0.00 | 0.00 | 41 | 1012.6 |
| 20260504231713 | 75 | 205 | 2.0 | 11.0 | 0.00 | 0.00 | 0.00 | 41 | 1012.7 |
| 20260504231206 | 76 | 228 | 2.0 | 10.0 | 0.00 | 0.00 | 0.00 | 40 | 1012.6 |
| 20260504230701 | 76 | 191 | 3.0 | 10.0 | 0.00 | 0.00 | 0.00 | 39 | 1012.6 |
| 20260504230358 | 77 | 278 | 3.0 | 8.0 | 0.00 | 0.00 | 0.00 | 40 | 1012.5 |
| 20260504230245 | 76 | 251 | 3.0 | 8.0 | 0.00 | 0.00 | 0.00 | 40 | 1012.6 |
| 20260504225142 | 77 | 195 | 2.0 | 7.0 | 0.00 | 0.00 | 0.00 | 41 | 1012.6 |
| 20260504224636 | 77 | 248 | 3.0 | 8.0 | 0.00 | 0.00 | 0.00 | 40 | 1012.6 |
| 20260504224131 | 77 | 265 | 3.0 | 11.0 | 0.00 | 0.00 | 0.00 | 39 | 1012.6 |
| 20260504223625 | 77 | 277 | 3.0 | 11.0 | 0.00 | 0.00 | 0.00 | 39 | 1012.6 |
| 20260504223119 | 77 | 193 | 3.0 | 11.0 | 0.00 | 0.00 | 0.00 | 42 | 1012.6 |
| 20260504222614 | 77 | 345 | 3.0 | 11.0 | 0.00 | 0.00 | 0.00 | 42 | 1012.5 |
| 20260504222108 | 77 | 220 | 4.0 | 10.0 | 0.00 | 0.00 | 0.00 | 39 | 1012.4 |
| 20260504221601 | 78 | 186 | 4.0 | 10.0 | 0.00 | 0.00 | 0.00 | 37 | 1012.4 |
| 20260504221055 | 78 | 204 | 4.0 | 10.0 | 0.00 | 0.00 | 0.00 | 36 | 1012.6 |
| 20260504220549 | 79 | 158 | 4.0 | 10.0 | 0.00 | 0.00 | 0.00 | 37 | 1012.5 |
| 20260504220056 | 79 | 338 | 4.0 | 13.0 | 0.00 | 0.00 | 0.00 | 37 | 1012.5 |
| 20260504215536 | 79 | 193 | 5.0 | 18.0 | 0.00 | 0.00 | 0.00 | 38 | 1012.5 |
| 20260504215031 | 79 | 185 | 5.0 | 18.0 | 0.00 | 0.00 | 0.00 | 36 | 1012.5 |
| 20260504214525 | 79 | 265 | 5.0 | 10.0 | 0.00 | 0.00 | 0.00 | 37 | 1012.4 |
| 20260504214240 | 79 | 249 | 4.0 | 9.0 | 0.00 | 0.00 | 0.00 | 37 | 1012.5 |
| 20260504213512 | 79 | 268 | 4.0 | 15.0 | 0.00 | 0.00 | 0.00 | 37 | 1012.5 |
| 20260504213007 | 79 | 265 | 5.0 | 15.0 | 0.00 | 0.00 | 0.00 | 37 | 1012.4 |
| 20260504212501 | 79 | 231 | 5.0 | 12.0 | 0.00 | 0.00 | 0.00 | 36 | 1012.5 |
| 20260504211955 | 79 | 312 | 5.0 | 11.0 | 0.00 | 0.00 | 0.00 | 37 | 1012.5 |
| 20260504211709 | 79 | 255 | 4.0 | 11.0 | 0.00 | 0.00 | 0.00 | 37 | 1012.5 |
| 20260504210944 | 79 | 182 | 4.0 | 10.0 | 0.00 | 0.00 | 0.00 | 36 | 1012.6 |
| 20260504210437 | 79 | 156 | 5.0 | 16.0 | 0.00 | 0.00 | 0.00 | 38 | 1012.6 |
| 20260504210154 | 79 | 272 | 5.0 | 16.0 | 0.00 | 0.00 | 0.00 | 37 | 1012.6 |
| 20260504205424 | 79 | 240 | 5.0 | 13.0 | 0.00 | 0.00 | 0.00 | 36 | 1012.6 |
| 20260504204919 | 79 | 309 | 4.0 | 12.0 | 0.00 | 0.00 | 0.00 | 36 | 1012.6 |
| 20260504204413 | 80 | 179 | 4.0 | 11.0 | 0.00 | 0.00 | 0.00 | 36 | 1012.6 |
| 20260504203908 | 79 | 226 | 4.0 | 12.0 | 0.00 | 0.00 | 0.00 | 39 | 1012.6 |
| 20260504203602 | 79 | 168 | 5.0 | 14.0 | 0.00 | 0.00 | 0.00 | 37 | 1012.7 |
| 20260504203448 | 79 | 201 | 4.0 | 14.0 | 0.00 | 0.00 | 0.00 | 39 | 1012.5 |
| 20260504202349 | 79 | 185 | 5.0 | 16.0 | 0.00 | 0.00 | 0.00 | 37 | 1012.7 |
| 20260504201844 | 79 | 221 | 5.0 | 16.0 | 0.00 | 0.00 | 0.00 | 36 | 1012.6 |
| 20260504201337 | 79 | 261 | 5.0 | 13.0 | 0.00 | 0.00 | 0.00 | 36 | 1012.6 |
| 20260504200831 | 79 | 284 | 5.0 | 14.0 | 0.00 | 0.00 | 0.00 | 36 | 1012.8 |
| 20260504200550 | 79 | 244 | 5.0 | 14.0 | 0.00 | 0.00 | 0.00 | 37 | 1012.9 |
| 20260504195832 | 79 | 247 | 4.0 | 12.0 | 0.00 | 0.00 | 0.00 | 36 | 1012.9 |
| 20260504195556 | 79 | 268 | 3.0 | 9.0 | 0.00 | 0.00 | 0.00 | 38 | 1012.8 |
| 20260504194831 | 79 | 254 | 4.0 | 10.0 | 0.00 | 0.00 | 0.00 | 37 | 1012.8 |
| 20260504194332 | 79 | 122 | 5.0 | 14.0 | 0.00 | 0.00 | 0.00 | 38 | 1012.8 |
| 20260504193831 | 79 | 164 | 5.0 | 14.0 | 0.00 | 0.00 | 0.00 | 39 | 1013.0 |
| 20260504193331 | 79 | 199 | 4.0 | 12.0 | 0.00 | 0.00 | 0.00 | 38 | 1013.1 |
| 20260504192830 | 79 | 68 | 5.0 | 10.0 | 0.00 | 0.00 | 0.00 | 35 | 1013.1 |
| 20260504192330 | 79 | 155 | 6.0 | 13.0 | 0.00 | 0.00 | 0.00 | 38 | 1013.3 |
| 20260504191831 | 79 | 168 | 6.0 | 13.0 | 0.00 | 0.00 | 0.00 | 40 | 1013.3 |
| 20260504191330 | 79 | 198 | 5.0 | 12.0 | 0.00 | 0.00 | 0.00 | 39 | 1013.3 |
| 20260504190830 | 78 | 263 | 4.0 | 14.0 | 0.00 | 0.00 | 0.00 | 39 | 1013.3 |
| 20260504190547 | 78 | 207 | 5.0 | 14.0 | 0.00 | 0.00 | 0.00 | 41 | 1013.4 |
| 20260504185829 | 78 | 318 | 5.0 | 11.0 | 0.00 | 0.00 | 0.00 | 38 | 1013.4 |
| 20260504185329 | 78 | 157 | 6.0 | 11.0 | 0.00 | 0.00 | 0.00 | 39 | 1013.5 |
| 20260504184830 | 78 | 187 | 5.0 | 18.0 | 0.00 | 0.00 | 0.00 | 43 | 1013.7 |
| 20260504184545 | 78 | 172 | 5.0 | 18.0 | 0.00 | 0.00 | 0.00 | 39 | 1013.5 |
| 20260504184038 | 77 | 286 | 6.0 | 15.0 | 0.00 | 0.00 | 0.00 | 41 | 1013.7 |
| 20260504183311 | 78 | 279 | 4.0 | 15.0 | 0.00 | 0.00 | 0.00 | 41 | 1013.9 |
| 20260504182811 | 77 | 230 | 4.0 | 10.0 | 0.00 | 0.00 | 0.00 | 42 | 1014.0 |
| 20260504182536 | 77 | 261 | 5.0 | 13.0 | 0.00 | 0.00 | 0.00 | 41 | 1014.2 |
| 20260504181811 | 78 | 261 | 6.0 | 15.0 | 0.00 | 0.00 | 0.00 | 42 | 1014.3 |
| 20260504181310 | 77 | 312 | 6.0 | 15.0 | 0.00 | 0.00 | 0.00 | 43 | 1014.2 |
| 20260504180811 | 77 | 236 | 5.0 | 12.0 | 0.00 | 0.00 | 0.00 | 44 | 1014.3 |
| 20260504180538 | 76 | 236 | 5.0 | 13.0 | 0.00 | 0.00 | 0.00 | 44 | 1014.4 |
| 20260504175811 | 76 | 231 | 6.0 | 16.0 | 0.00 | 0.00 | 0.00 | 41 | 1014.3 |
| 20260504175311 | 75 | 206 | 6.0 | 16.0 | 0.00 | 0.00 | 0.00 | 43 | 1014.4 |
| 20260504174811 | 76 | 283 | 4.0 | 12.0 | 0.00 | 0.00 | 0.00 | 42 | 1014.3 |
| 20260504174530 | 76 | 234 | 5.0 | 15.0 | 0.00 | 0.00 | 0.00 | 44 | 1014.5 |
| 20260504173807 | 75 | 289 | 5.0 | 15.0 | 0.00 | 0.00 | 0.00 | 47 | 1014.5 |
| 20260504173528 | 75 | 272 | 5.0 | 12.0 | 0.00 | 0.00 | 0.00 | 43 | 1014.6 |
| 20260504172807 | 75 | 170 | 6.0 | 16.0 | 0.00 | 0.00 | 0.00 | 43 | 1014.7 |
| 20260504172307 | 75 | 164 | 5.0 | 16.0 | 0.00 | 0.00 | 0.00 | 44 | 1014.8 |
| 20260504171807 | 76 | 322 | 5.0 | 13.0 | 0.00 | 0.00 | 0.00 | 42 | 1014.8 |
| 20260504171755 | 76 | 195 | 5.0 | 12.0 | 0.00 | 0.00 | 0.00 | 43 | 1014.9 |
| 20260504170808 | 76 | 217 | 5.0 | 12.0 | 0.00 | 0.00 | 0.00 | 45 | 1014.8 |
| 20260504170307 | 76 | 227 | 4.0 | 12.0 | 0.00 | 0.00 | 0.00 | 48 | 1014.7 |
| 20260504160256 | 74 | 278 | 6.0 | 14.0 | 0.00 | 0.00 | 0.00 | 46 | 1015.6 |
| 20260504150659 | 72 | 185 | 3.0 | 10.0 | 0.00 | 0.00 | 0.00 | 55 | 1015.7 |
| 20260504150151 | 72 | 194 | 4.0 | 14.0 | 0.00 | 0.00 | 0.00 | 55 | 1015.7 |
| 20260504141052 | 69 | 195 | 4.0 | 9.0 | 0.00 | 0.00 | 0.00 | 58 | 1016.2 |
| 20260504140547 | 68 | 165 | 4.0 | 9.0 | 0.00 | 0.00 | 0.00 | 59 | 1016.3 |
| 20260504130434 | 63 | 264 | 2.0 | 10.0 | 0.00 | 0.00 | 0.00 | 67 | 1016.6 |
| 20260504110716 | 49 | 179 | 1.0 | 6.0 | 0.00 | 0.00 | 0.00 | 84 | 1017.0 |
| 20260504110210 | 49 | 174 | 1.0 | 5.0 | 0.00 | 0.00 | 0.00 | 84 | 1017.0 |
| 20260504081545 | 49 | 176 | 1.0 | 2.0 | 0.00 | 0.00 | 0.00 | 84 | 1017.6 |
| 20260504081044 | 49 | 169 | 1.0 | 3.0 | 0.00 | 0.00 | 0.00 | 84 | 1017.6 |
| 20260504080545 | 49 | 139 | 1.0 | 3.0 | 0.00 | 0.00 | 0.00 | 84 | 1017.7 |
| 20260504050749 | 44 | 72 | 0.0 | 3.0 | 0.00 | 0.00 | 0.00 | 83 | 1017.9 |
| 20260504050242 | 44 | 72 | 1.0 | 3.0 | 0.00 | 0.00 | 0.00 | 83 | 1018.0 |